Weather History for FAUP - October, 2011

Change the Weather History Date:

Tuesday, October 18, 2011

  Actual Average Record
Temperature  
Mean Temperature 70 °F -  
Max Temperature 83 °F 87 °F 96 °F (2004)
Min Temperature 57 °F 58 °F 45 °F (2013)
Cooling Degree Days 5    
Growing Degree Days 20 (Base 50)    
Moisture  
Dew Point 31 °F    
Average Humidity 27    
Maximum Humidity 55    
Minimum Humidity 4    
Precipitation  
Precipitation 0.00 in 0.00 in - ()
Sea Level Pressure  
Sea Level Pressure 29.77 in    
Wind  
Wind Speed 8 mph ()    
Max Wind Speed 16 mph    
Max Gust Speed 23 mph    
Averages and records for this station are not official NWS values.
T = Trace of Precipitation, MM = Missing Value Source: Averaged Metar Reports

Daily Weather History Graph

Daily Weather History Graph

Search for Another Location

Airport or City:

Trip Planner

Search our weather history database for the weather conditions in past years. The results will help you decide how hot, cold, wet, or windy it might be!

Date:

Astronomy

Oct. 18, 2011 Rise Set
Actual Time 5:55 AM SAST 6:45 PM SAST
Civil Twilight 5:31 AM SAST 7:09 PM SAST
Nautical Twilight 5:03 AM SAST 7:37 PM SAST
Astronomical Twilight 4:34 AM SAST 8:06 PM SAST
Moon No Moon Rise 10:13 AM SAST (10/18)
Length of Visible Light 13h 37m
Length of Day
12h 49m
Waning Gibbous, 67% of the Moon is Illuminated
Oct 18
Waning Gibbous
Oct 20
Last Quarter
Oct 26
New
Nov 2
First Quarter
Nov 10
Full

Hourly Weather History & Observations

Time (SAST) Temp. Dew Point Humidity Pressure Visibility Wind Dir Wind Speed Gust Speed Precip Events Conditions
12:00 AM 71.6 °F 26.6 °F 19% 29.74 in - SW 9.2 mph - N/A   Unknown
1:00 AM 66.2 °F 32.0 °F 28% 29.77 in - WSW 6.9 mph - N/A   Clear
2:00 AM 64 °F 35 °F 22%  in 25 mi WSW 8.1 mph - -   Clear
2:00 AM 62.6 °F 33.8 °F 34% 29.77 in - WSW 6.9 mph - N/A   Clear
3:00 AM 62.6 °F 39.2 °F 42% 29.77 in - WSW 8.1 mph - N/A   Clear
4:00 AM 60.8 °F 41.0 °F 48% 29.74 in - WSW 4.6 mph - N/A   Clear
5:00 AM 58 °F 42 °F 44%  in 25 mi WSW 4.6 mph - -   Clear
5:00 AM 57.2 °F 41.0 °F 55% 29.74 in - WSW 4.6 mph - N/A   Clear
6:00 AM 57.2 °F 41.0 °F 55% 29.77 in - SW 4.6 mph - N/A   Clear
7:00 AM 60.8 °F 42.8 °F 52% 29.80 in - WSW 4.6 mph - N/A   Clear
8:00 AM 64 °F 41 °F 31%  in 25 mi SW 10.4 mph - -   Clear
8:00 AM 62.6 °F 39.2 °F 42% 29.80 in - SW 10.4 mph - N/A   Clear
9:00 AM 66.2 °F 35.6 °F 32% 29.83 in - SW 11.5 mph - N/A   Clear
10:00 AM 69.8 °F 30.2 °F 23% 29.83 in - WSW 15.0 mph - N/A   Clear
11:00 AM 73 °F 18 °F 5%  in 25 mi WSW 9.2 mph - -   Scattered Clouds
11:00 AM 71.6 °F 19.4 °F 14% 29.83 in - WSW 8.1 mph - N/A   Clear
11:27 AM 77.0 °F 19.4 °F 12% 29.80 in - WSW 8.1 mph - N/A   Clear
12:00 PM 77.0 °F 21.2 °F 12% 29.80 in - WSW 9.2 mph - N/A   Clear
12:47 PM 80.6 °F 21.2 °F 11% 29.74 in - West 11.5 mph 23.0 mph N/A   Clear
1:00 PM 78.8 °F 19.4 °F 11% 29.74 in - West 11.5 mph - N/A   Clear
2:00 PM 82 °F 20 °F 4%  in 25 mi West 11.5 mph - -   Scattered Clouds
2:00 PM 80.6 °F 21.2 °F 11% 29.71 in - West 10.4 mph - N/A   Clear
3:00 PM 80.6 °F 23.0 °F 12% 29.71 in - WSW 11.5 mph - N/A   Clear
4:00 PM 80.6 °F 26.6 °F 14% 29.71 in - WSW 12.7 mph - N/A   Clear
5:00 PM 80 °F 25 °F 6%  in 25 mi WSW 15.0 mph - -   Scattered Clouds
5:00 PM 78.8 °F 26.6 °F 15% 29.71 in - WSW 13.8 mph - N/A   Clear
6:00 PM 73.4 °F 28.4 °F 19% 29.74 in - WSW 13.8 mph - N/A   Clear
7:00 PM 68.0 °F 30.2 °F 24% 29.77 in - SW 12.7 mph - N/A   Clear
8:00 PM 64.4 °F 33.8 °F 32% 29.80 in - SW 13.8 mph - N/A   Clear
9:00 PM 62.6 °F 35.6 °F 37% 29.80 in - SW 15.0 mph - N/A   Unknown
10:00 PM 62.6 °F 33.8 °F 34% 29.83 in - SW 11.5 mph - N/A   Unknown
11:00 PM 59 °F 38 °F 35%  in - SW 16.1 mph - -  
11:00 PM 59.0 °F 37.4 °F 45% 29.86 in - SW 16.1 mph - N/A   Unknown